Theta_e
334 327 327 320 310 309 306 308 314 313 314 322 324 322 322 326 322 318 339 335 337 341 357 353 358 359 358 358 356 355 355 355 357 358 358 357 355 353 351 348 346 343 340 338 335 334 333 334 334
325 324 321 317 306 304 306 312 310 314 321 325 324 323 325 323 329 332 334 337 338 344 355 348 357 357 358 357 356 355 354 353 353 354 354 353 352 350 347 345 342 339 338 337 336 336 335 335 334
335 323 315 311 308 304 307 313 313 316 320 321 321 326 326 324 332 332 338 338 341 348 351 349 357 356 357 356 355 354 353 352 352 351 351 349 349 348 346 344 342 340 339 339 339 338 337 337 338
321 318 316 308 305 310 310 314 314 315 319 324 324 321 326 333 333 336 339 338 340 345 349 354 356 356 356 356 354 353 352 352 351 350 349 347 346 347 346 344 344 342 340 340 340 339 339 340 341
320 316 306 305 306 310 314 315 315 315 318 322 323 321 324 331 336 338 338 336 339 341 347 353 355 356 356 356 355 353 352 351 351 350 349 348 348 347 346 345 343 342 342 342 342 341 341 342 342
312 312 305 303 306 310 313 316 315 315 318 321 321 322 326 336 336 337 336 336 338 340 345 355 356 356 355 355 354 353 352 351 351 351 350 349 349 348 347 346 345 345 346 345 344 344 343 344 344
312 308 302 305 306 308 311 316 313 314 316 318 324 321 327 331 337 338 336 336 337 341 343 355 356 354 356 355 353 352 351 351 350 350 349 349 349 349 347 346 346 347 347 348 348 348 346 346 346
315 312 306 306 302 304 311 313 315 314 315 323 324 319 323 333 339 337 336 336 337 340 342 345 355 350 348 348 355 354 352 351 350 350 350 349 349 349 347 346 346 347 348 348 348 348 349 349 348
320 309 305 306 305 306 311 310 315 319 317 320 323 325 328 335 337 337 334 334 336 337 341 344 346 349 347 343 348 354 353 352 351 350 350 348 341 342 341 342 345 347 348 348 348 349 349 348 348
314 309 308 311 312 310 310 311 312 314 316 318 322 326 327 333 337 333 332 331 334 335 338 342 346 348 348 342 349 351 346 348 346 343 345 343 341 341 339 341 345 348 348 349 349 349 348 347 342
314 309 314 314 314 314 311 312 314 312 313 318 319 324 327 328 330 332 332 333 333 335 337 339 356 357 351 346 344 347 349 347 348 349 351 348 340 341 340 340 342 344 347 343 346 345 345 344 342
310 314 314 315 316 315 311 313 312 313 314 320 324 327 326 325 327 329 330 332 334 335 338 342 348 355 357 348 345 347 346 350 350 349 355 348 347 346 345 341 340 348 341 343 343 342 347 345 345
309 311 314 316 316 316 316 313 314 315 318 319 319 323 324 325 327 330 331 332 334 335 338 341 349 359 361 360 348 350 351 347 349 351 355 351 346 348 345 347 342 342 341 342 342 342 346 346 344
310 311 312 314 315 315 312 313 314 316 320 319 319 319 322 324 327 329 331 331 333 336 337 340 344 365 360 359 362 358 359 349 349 348 352 357 351 353 345 347 343 341 339 340 341 344 344 344 344
307 304 307 310 313 312 314 308 310 317 319 319 320 321 323 325 328 327 330 332 333 335 339 341 345 355 365 365 360 360 351 351 347 348 360 359 357 356 354 346 344 342 343 350 345 345 344 341 342
301 304 299 306 309 311 310 303 311 316 318 318 320 321 322 325 326 328 330 332 335 336 340 341 336 338 355 358 354 352 348 349 348 348 351 358 360 358 356 346 344 345 343 339 339 339 337 336 342
297 294 299 301 308 308 308 305 312 315 315 315 318 320 321 322 326 330 330 331 334 338 341 340 345 339 349 357 350 352 358 350 348 349 348 357 353 354 353 347 347 354 341 339 339 338 338 338 342
293 294 297 298 304 306 305 306 310 313 314 314 317 319 321 321 323 327 330 332 334 337 347 350 346 355 355 349 354 344 345 349 349 348 349 356 353 352 353 349 353 350 342 339 338 343 338 341 341
297 295 294 299 304 304 303 305 307 312 311 313 316 318 319 321 324 327 329 332 333 340 346 348 347 356 351 343 340 341 342 347 347 348 354 353 353 352 355 349 351 350 346 346 348 340 343 339 341
296 294 294 298 301 302 303 303 307 311 311 312 314 316 318 321 323 325 329 334 335 339 343 346 350 353 356 345 348 346 348 346 348 349 354 354 353 352 351 353 351 350 343 345 347 347 340 338 340
294 293 293 294 298 301 301 299 303 308 311 313 314 316 318 319 320 323 325 330 332 334 340 342 349 353 355 355 351 352 352 352 347 349 350 352 352 352 352 352 350 349 348 341 348 345 342 332 340
291 296 295 294 293 290 300 291 301 305 307 310 312 314 316 319 320 322 323 327 331 330 334 341 346 350 353 359 349 359 347 344 345 348 350 351 352 351 351 350 350 351 345 351 346 343 342 342 334
293 296 295 294 292 293 294 292 298 305 303 307 311 313 316 318 319 320 321 323 325 329 332 338 343 348 353 357 354 350 352 346 346 347 355 357 353 352 349 351 350 350 346 352 347 343 345 342 341
298 294 294 294 292 286 292 292 294 299 304 307 311 313 315 316 318 319 321 323 324 324 326 334 341 346 351 353 351 358 356 356 346 350 348 347 348 349 350 350 351 352 349 347 344 346 344 344 340
295 292 284 282 283 283 293 292 295 303 306 308 308 311 314 315 315 317 318 319 322 323 326 328 335 340 349 349 349 350 357 360 360 353 348 349 346 347 350 352 351 346 347 345 346 345 343 341 338
293 291 284 278 280 284 293 287 295 304 307 309 310 312 314 313 316 318 320 322 325 326 326 326 330 339 347 348 349 351 355 350 351 355 349 346 345 346 354 348 347 346 345 344 345 343 343 343 337
293 289 294 287 287 283 287 294 301 305 305 307 309 310 311 313 318 321 325 328 330 327 327 332 338 342 347 349 350 352 354 357 352 357 357 346 352 345 347 345 345 345 344 343 344 341 340 339 337
295 297 286 289 280 278 286 289 292 299 302 306 308 309 311 314 316 319 326 332 333 329 330 336 340 344 347 349 350 350 351 350 350 350 351 349 348 344 343 344 344 343 342 341 342 342 339 337 337
292 291 292 291 288 282 280 287 300 302 303 306 309 310 311 312 315 320 330 332 334 333 335 339 343 345 346 347 348 348 347 348 348 345 345 344 345 343 341 340 340 340 340 340 340 339 336 334 336
295 293 292 285 284 289 287 287 300 305 307 307 309 309 311 313 315 318 331 331 334 336 340 342 344 344 346 347 346 345 345 344 344 343 343 343 342 341 338 338 336 335 337 338 337 334 334 332 333
Wind_Speed
13 13 9 7 9 9 17 18 14 9 13 0 5 8 9 8 5 5 12 14 18 19 19 21 18 18 18 16 14 13 12 11 11 12 13 13 13 12 11 11 10 9 8 8 7 6 4 4 3
14 13 8 9 10 14 13 16 13 12 8 6 7 7 8 4 3 14 14 11 19 19 18 21 22 20 18 17 15 13 12 11 10 10 11 12 12 11 11 11 10 9 9 8 8 7 6 5 3
15 11 10 9 15 16 16 12 10 13 2 5 5 3 8 4 7 2 19 13 19 18 18 18 24 21 19 18 16 14 13 12 11 11 11 11 11 11 11 11 10 11 10 10 9 8 7 7 6
7 7 9 13 20 19 22 9 8 10 8 10 9 8 7 12 3 9 19 19 18 17 18 17 22 20 18 18 17 15 15 14 13 13 12 12 12 11 11 11 11 11 11 10 9 9 8 7 6
9 9 13 16 21 22 16 14 4 12 12 11 8 12 9 12 4 10 19 17 17 16 16 18 21 18 18 18 18 17 15 15 14 14 13 13 13 13 12 12 12 12 12 11 11 11 10 9 7
9 10 15 17 22 20 17 13 11 14 14 11 12 11 12 11 9 10 19 17 17 16 14 17 18 18 18 19 18 17 16 15 15 15 15 14 14 14 14 14 14 13 12 13 14 13 12 11 9
16 13 17 21 21 15 14 9 17 16 18 18 16 13 17 8 10 11 17 15 13 15 13 16 15 17 16 17 17 16 15 15 15 16 16 17 16 16 16 15 14 14 13 14 13 11 11 11 10
14 14 24 19 18 22 12 16 14 17 17 14 1 8 13 12 8 12 15 16 14 13 14 13 14 16 16 15 13 15 15 16 17 16 16 16 16 16 16 15 15 15 15 14 12 11 11 11 10
16 17 18 22 20 18 12 16 19 13 12 12 11 10 9 2 8 13 15 17 14 12 13 13 15 16 15 15 15 15 17 18 17 16 16 14 13 15 16 16 16 17 16 13 12 12 11 11 12
20 17 25 20 18 12 12 18 21 17 14 17 11 7 3 7 11 13 13 14 15 15 14 13 11 12 14 11 12 14 15 14 14 15 16 14 14 13 15 16 18 17 16 13 14 13 12 11 10
24 27 24 20 17 13 17 18 20 21 18 17 17 15 12 6 5 10 17 17 17 15 10 9 9 6 10 10 9 8 9 9 10 15 13 13 12 11 11 9 10 10 15 10 13 12 10 13 11
27 31 26 26 25 15 18 17 22 24 21 18 15 13 10 6 8 10 12 14 14 16 18 15 14 10 10 9 10 10 9 10 10 13 15 12 10 10 9 9 11 11 10 12 11 10 11 13 11
33 30 27 26 24 25 19 24 23 24 22 22 21 16 14 14 13 10 10 10 10 10 9 11 11 13 10 11 10 10 10 10 11 11 14 12 12 10 11 9 10 10 12 11 10 10 9 11 10
27 28 31 29 27 26 23 26 23 26 23 23 23 21 19 19 18 14 13 11 12 11 10 6 9 13 12 11 11 8 8 10 10 10 11 17 12 9 11 10 11 11 10 10 10 10 10 9 6
26 30 28 28 30 32 24 26 33 27 26 26 23 20 21 22 21 16 14 12 12 11 8 8 8 11 11 11 11 9 9 9 11 11 11 14 15 12 11 10 11 10 10 8 7 7 6 9 7
22 22 27 33 30 28 23 33 39 29 26 26 27 23 22 22 22 18 15 13 13 11 10 9 8 6 8 9 8 8 9 9 10 10 10 14 14 14 11 10 10 10 9 9 9 8 9 10 3
20 25 29 30 31 30 29 36 33 31 24 25 24 25 24 24 24 19 15 13 11 11 10 12 9 10 8 8 9 9 9 9 10 10 10 13 14 15 12 11 10 9 9 9 9 9 9 6 5
22 27 30 31 28 28 30 36 32 29 26 27 25 25 22 24 25 20 17 16 13 11 10 10 10 9 7 7 6 8 8 9 10 10 10 12 11 15 12 10 10 8 9 9 9 8 8 6 6
23 27 34 31 24 29 30 32 35 30 26 27 25 22 24 24 21 20 12 12 13 12 11 12 12 12 8 8 9 9 10 10 10 10 11 13 13 14 12 10 10 8 9 9 8 8 8 8 4
24 26 30 29 31 28 25 30 33 28 28 27 29 26 21 19 19 17 17 13 12 12 12 14 13 13 9 9 8 9 8 9 10 9 10 11 13 13 10 12 10 11 9 8 8 8 7 9 4
22 25 25 29 26 28 31 28 33 31 27 26 28 30 29 28 27 22 19 15 14 14 14 14 13 11 10 10 7 6 6 5 8 10 9 11 13 13 12 14 9 11 8 9 8 8 9 6 4
24 22 25 24 24 23 28 23 28 27 28 29 26 27 28 25 19 20 22 20 15 16 16 15 14 12 11 11 10 9 9 9 9 9 9 10 13 13 14 12 11 10 9 7 8 8 6 4 6
21 20 24 26 24 28 29 24 21 23 27 26 26 25 22 21 26 28 22 21 20 20 16 14 13 12 11 12 11 10 11 9 9 9 13 9 9 12 13 10 10 9 8 9 7 7 6 6 5
18 21 26 24 22 23 30 29 25 22 20 23 19 19 18 17 19 19 21 24 21 15 15 13 13 13 13 12 13 11 12 9 10 10 11 10 7 7 9 12 9 9 7 7 7 6 7 7 6
17 20 15 17 18 22 26 28 22 21 28 23 19 22 21 16 12 16 20 17 17 17 15 13 13 12 13 14 13 13 11 8 10 12 11 12 9 9 9 10 9 9 8 6 6 7 7 6 6
18 18 14 18 18 18 24 25 22 28 32 8 8 12 7 6 12 9 12 13 13 13 12 14 13 14 14 14 14 13 12 10 10 12 10 10 10 9 12 10 9 7 8 7 7 5 6 6 5
15 19 22 24 21 13 14 26 28 23 32 24 20 8 8 3 8 9 9 9 11 10 10 13 13 14 14 14 13 13 13 12 11 10 9 8 8 10 11 11 9 9 7 8 7 5 7 5 6
15 18 11 7 18 19 16 22 18 23 13 16 13 8 4 5 8 7 5 6 9 9 11 13 13 14 15 15 14 14 13 12 12 11 9 9 7 9 11 10 9 7 9 5 6 5 6 6 3
9 16 17 12 15 14 11 13 19 26 25 18 17 10 3 5 8 6 6 6 8 8 11 13 14 16 16 15 15 14 13 13 13 11 11 10 9 9 10 9 9 7 6 6 7 4 8 7 5
7 13 6 5 12 15 16 17 23 22 5 27 13 8 4 7 9 11 10 4 6 10 13 14 15 16 16 16 15 14 14 14 13 11 11 11 10 9 9 9 9 8 8 8 7 7 5 6 8
Wind_Direction
239 246 249 244 240 234 245 228 246 223 238 115 343 254 257 288 212 38 146 131 143 145 151 167 173 176 174 175 179 179 178 175 176 172 165 162 161 161 167 169 170 170 169 166 163 152 148 137 126
211 225 240 266 243 244 230 237 195 229 193 118 225 242 261 223 47 110 148 143 136 140 153 172 176 178 176 175 181 178 179 178 183 176 170 165 162 169 176 176 175 177 177 172 168 166 164 156 152
253 223 256 227 236 248 264 201 216 193 201 227 241 289 225 262 287 42 133 154 146 151 159 176 172 177 177 174 177 179 182 179 184 181 173 171 166 171 175 178 176 181 180 180 179 177 176 179 175
212 209 252 262 248 232 260 312 312 225 169 228 218 221 216 215 150 162 144 151 154 162 166 155 169 175 175 173 178 183 184 180 187 182 178 174 176 175 178 180 181 187 188 190 192 187 188 197 197
246 259 240 241 244 267 275 277 297 249 208 211 204 223 204 178 214 110 153 161 163 169 166 151 161 175 175 178 179 185 186 186 186 182 179 181 185 181 184 188 189 194 196 198 200 201 197 204 215
234 243 247 246 245 240 245 259 242 257 260 242 236 237 233 136 173 182 165 170 172 162 166 142 162 171 177 182 180 184 188 190 188 184 182 187 188 188 189 194 196 199 201 204 208 209 209 204 214
243 237 246 265 272 270 269 251 249 240 235 233 241 253 225 159 175 177 170 170 164 154 171 145 171 177 184 187 182 185 186 190 192 189 186 192 192 191 192 195 198 204 209 213 215 215 219 229 215
247 253 264 252 263 268 272 262 267 260 249 261 17 243 246 114 123 181 182 170 171 169 173 173 170 183 192 191 188 187 190 193 195 192 194 195 196 196 196 199 204 206 213 218 219 222 225 233 234
238 254 250 251 249 261 275 280 270 254 263 254 250 264 28 328 181 192 196 177 185 177 178 184 178 178 192 195 188 193 198 199 199 196 200 196 208 201 205 209 205 207 215 215 218 223 230 234 239
230 239 241 260 268 276 255 262 263 253 216 241 204 200 195 172 191 196 190 191 193 194 192 189 199 188 188 201 189 198 207 209 210 209 207 212 215 213 211 208 213 204 211 212 221 224 227 229 243
233 243 255 249 258 285 262 270 275 266 246 234 220 201 193 148 196 220 194 207 204 216 190 188 150 185 201 202 194 201 205 205 211 213 211 208 218 218 205 217 194 209 208 215 210 213 228 226 236
244 241 249 256 270 255 257 272 269 274 267 247 233 213 195 186 248 211 216 213 231 212 202 191 169 187 207 221 203 210 218 207 207 205 205 212 208 215 222 207 214 195 215 210 231 208 217 224 236
241 247 247 249 260 260 259 256 260 259 262 268 263 252 219 246 240 232 261 271 272 234 235 216 188 177 201 217 232 218 223 216 221 209 195 205 219 220 207 224 220 217 204 202 218 235 225 220 236
257 252 250 250 243 253 247 258 263 255 261 260 259 249 247 242 237 240 218 235 252 243 236 252 218 171 194 214 221 242 229 244 221 225 211 198 213 216 218 210 225 234 227 218 214 218 225 223 238
267 269 267 258 245 243 246 256 251 249 254 257 257 247 248 246 243 242 246 237 243 244 237 233 226 169 194 213 222 230 245 228 240 217 211 198 202 219 212 219 215 226 236 217 250 237 223 255 256
281 263 249 244 247 244 236 247 251 251 247 243 253 249 245 238 237 243 235 237 241 243 241 219 248 222 198 214 235 248 246 232 226 229 210 202 192 219 208 225 221 222 224 217 225 220 237 241 244
245 252 248 252 240 241 235 245 250 254 245 255 240 246 244 243 238 237 235 243 222 230 236 241 231 253 253 245 241 239 238 235 233 222 218 191 200 202 226 214 226 215 218 218 212 225 229 228 228
255 244 246 255 259 233 237 238 243 251 255 244 254 248 245 239 235 231 212 220 229 230 227 243 254 260 242 252 244 247 229 222 228 218 215 185 197 202 198 217 220 200 214 215 215 216 233 241 238
271 272 275 273 265 244 256 240 243 237 236 255 257 240 228 241 248 241 235 239 226 218 230 246 255 246 231 234 234 225 221 207 213 214 200 189 193 197 194 216 193 200 210 217 190 221 214 230 233
277 276 272 272 267 275 272 254 254 244 232 232 247 254 244 245 249 242 234 234 234 235 232 238 234 238 222 229 244 267 216 208 208 198 186 190 190 191 179 222 178 189 199 195 213 196 216 219 223
267 269 274 280 281 259 261 256 261 258 249 230 237 244 247 248 244 243 248 240 238 239 237 226 224 224 220 221 226 220 258 216 194 184 180 190 187 185 193 209 181 171 214 182 198 199 224 237 222
265 269 277 272 270 260 248 257 250 245 250 244 237 240 245 240 250 253 253 251 246 245 242 220 217 210 211 204 222 198 215 200 203 185 182 174 181 182 194 186 182 174 210 152 179 202 223 214 232
273 278 275 263 261 259 256 256 248 234 244 237 238 246 249 251 241 240 242 246 242 239 230 220 218 208 216 187 221 185 219 203 184 185 142 166 173 177 179 179 171 180 217 151 188 201 196 218 241
288 281 277 255 253 242 243 245 243 243 245 231 233 231 234 245 249 253 253 247 240 240 240 223 203 201 203 199 199 196 195 229 175 161 161 163 156 172 181 174 177 180 208 154 195 198 212 221 255
253 269 270 255 244 246 239 245 243 253 255 269 280 243 233 232 248 252 243 239 231 223 230 222 201 197 199 190 187 190 203 180 164 153 174 163 159 177 173 174 179 178 200 183 196 207 212 217 231
277 261 267 263 264 252 242 243 243 234 253 222 263 265 143 192 245 246 250 248 246 227 208 208 191 197 182 183 181 181 168 177 169 192 159 174 167 171 151 181 179 191 186 200 193 202 211 206 201
283 261 250 266 257 274 286 287 232 240 219 239 227 226 206 192 270 258 275 266 256 226 197 185 183 181 173 171 167 162 176 164 166 133 150 144 150 132 166 183 174 199 179 196 187 202 210 184 205
240 261 294 258 269 260 269 256 257 214 221 213 195 184 144 245 257 277 302 301 265 216 179 175 173 166 165 159 157 163 160 158 135 147 172 153 142 146 165 179 177 175 203 168 181 187 177 197 158
238 243 243 259 249 273 298 284 225 209 195 222 163 133 138 310 317 310 28 314 248 169 162 172 167 160 155 156 159 153 151 143 149 156 142 145 150 156 174 182 183 188 160 161 193 234 190 184 190
291 271 275 222 271 280 250 265 309 275 195 194 123 129 37 345 340 326 68 329 213 173 148 157 155 153 155 157 149 150 145 148 148 148 151 154 166 173 179 185 188 178 169 182 190 207 175 193 197